Flag for Switzerland

Past Weather in 47°12'29.0"N, 8°11'25.8"E, Switzerland — Yesterday and Last 2 Weeks

Now
50 °F

Cool.


Feels Like: 50 °F
Forecast: 64 / 46 °F
Wind: 1 mph from Southwest

Location: Zuerich-Fluntern

Current Time: Jun 7, 2020 at 8:10:55 am

Latest Report: Jun 7, 2020 at 7:00 am


Visibility: N/A

Pressure: 29.78 "Hg

Humidity: 95%

Dew Point: 48 °F

Location of 47°12'29.0"N, 8°11'25.8"ELocation

Past Weather in 47°12'29.0"N, 8°11'25.8"E — Graph

°F

47°12'29.0"N, 8°11'25.8"E Temperature Yesterday

Maximum temperature yesterday: 66 °F (at 1:00 pm)
Minimum temperature yesterday: 53 °F (at 11:00 pm)
Average temperature yesterday: 59 °F

High & Low Weather Summary for the Past Weeks

 TemperatureHumidityPressure
High78 °F (Jun 3, 1:00 pm)98% (Jun 4, 5:00 am)30.54 "Hg (Jun 4, 5:00 am)
Low45 °F (May 24, 2:00 am)26% (Jun 2, 3:00 pm)29.47 "Hg (Jun 4, 11:00 am)
Average58 °F63%30.08 "Hg
* Reported May 23 6:00 am — Jun 7 6:00 am, 47°12'29.0"N, 8°11'25.8"E. Weather by CustomWeather, © 2020

Note: Actual official high and low records may vary slightly from our data, if they occured in-between our weather recording intervals... More about our weather records

47°12'29.0"N, 8°11'25.8"E Weather History for the Previous 24 Hours

Scroll right to see more
 ConditionsComfort  
Time TempWeatherWind HumidityBarometerVisibility
6:00 am
Sun, Jun 7
50 °FCool.2 mph97%29.78 "HgN/A
5:00 am51 °FCool.2 mph94%29.76 "HgN/A
4:00 am51 °FCool.2 mph95%29.76 "HgN/A
3:00 am52 °FCool.2 mph95%29.76 "HgN/A
2:00 am53 °FCool.3 mph95%29.76 "HgN/A
1:00 am53 °FCool.1 mph97%29.75 "HgN/A
12:00 am52 °FCool.1 mph96%29.75 "HgN/A
11:00 pm
Sat, Jun 6
53 °FCool.2 mph96%29.76 "HgN/A
10:00 pm53 °FCool.2 mph94%29.75 "HgN/A
9:00 pm55 °FCool.6 mph86%29.75 "HgN/A
8:00 pm57 °FCool.5 mph83%29.72 "HgN/A
7:00 pm60 °FCool.3 mph82%29.70 "HgN/A
6:00 pm60 °FCool.1 mph90%29.69 "HgN/A
3:00 pm65 °FMild.6 mph64%29.67 "HgN/A
1:00 pm66 °FMild.8 mph61%29.65 "HgN/A
12:00 pm65 °FMild.12 mph59%29.65 "HgN/A
11:00 am62 °FCool.16 mph63%29.67 "HgN/A
10:00 am61 °FCool.12 mph66%29.67 "HgN/A
9:00 am60 °FCool.14 mph68%29.67 "HgN/A
8:00 am59 °FCool.10 mph70%29.67 "HgN/A
Weather by CustomWeather, © 2020

See weather overview

Advertising